Home   Weather   Rapid City   Past weeks

Flag for USA Past Weather in Rapid City, South Dakota, USA — Yesterday and Last 2 Weeks

Now
21 °F

More clouds than sun.


Feels Like: 14 °F
Forecast: 18 / 27 °F
Wind: 5 mph from North

Location: Ellsworth Air Force Base

Current Time: Feb 24, 2017 at 12:38:11 pm

Latest Report: Feb 24, 2017 at 11:58 am


Visibility: 10 mi

Pressure: 30.20 "Hg (26.65 "Hg at 977m altitude)

Humidity: 78%

Dew Point: 15 °F

Location of Rapid CityLocation

Past Weather in Rapid City — Graph

°F

Rapid City Temperature Yesterday

Maximum temperature yesterday: 30 °F (at 12:23 am)
Minimum temperature yesterday: 24 °F (at 11:58 pm)
Average temperature yesterday: 27 °F

High & Low Weather Summary for the Past Weeks

 TemperatureHumidityPressure
High72 °F (Feb 16, 1:58 pm)100% (Feb 23, 1:58 am)30.53 "Hg (Feb 23, 1:58 am)
Low17 °F (Feb 24, 6:58 am)11% (Feb 16, 1:58 pm)29.40 "Hg (Feb 17, 1:58 am)
Average42 °F59%29.87 "Hg
* Reported Feb 9 10:58 am — Feb 24 10:58 am, Rapid City, Weather by CustomWeather, © 2017

Note: Actual official high and low records may vary slightly from our data, if they occured in-between our weather recording intervals... More about our weather records

Advertising

Rapid City Weather History for the Previous 24 Hours

Scroll right to see more
 ConditionsComfort  
Time TempWeatherWind HumidityBarometerVisibility
10:58 am
Fri, Feb 24
19 °FOvercast.No wind80%30.21 "Hg10 mi
9:58 am18 °FOvercast.3 mph86%30.21 "Hg10 mi
9:33 am18 °FMore clouds than sun.5 mph93%30.07 "Hg10 mi
9:23 am18 °FMore clouds than sun.5 mph86%30.07 "Hg10 mi
8:58 am18 °FLow clouds.3 mph86%30.21 "Hg10 mi
8:43 am18 °FLow clouds.No wind86%30.07 "Hg10 mi
8:13 am18 °FLow clouds.5 mph93%30.07 "Hg10 mi
7:58 am17 °FMostly cloudy.No wind90%30.20 "Hg10 mi
7:28 am18 °FOvercast.6 mph86%30.06 "Hg10 mi
7:23 am18 °FLow clouds.6 mph86%30.06 "Hg10 mi
6:58 am17 °FLow clouds.7 mph92%30.18 "Hg10 mi
6:41 am18 °FMostly cloudy.9 mph93%30.04 "Hg10 mi
5:58 am18 °FMore clouds than sun.10 mph91%30.16 "Hg10 mi
4:58 am19 °FMostly cloudy.10 mph92%30.15 "Hg10 mi
4:36 am19 °FMostly cloudy.15 mph100%30.00 "Hg10 mi
4:22 am21 °FIce fog.14 mph100%30.00 "Hg4 mi
3:58 am22 °FMostly cloudy.13 mph96%30.12 "Hg10 mi
3:32 am21 °FMostly cloudy.10 mph100%29.99 "Hg10 mi
3:12 am21 °FMostly cloudy.12 mph100%29.99 "Hg10 mi
2:58 am22 °FLight snow. Low clouds.14 mph99%30.11 "Hg9 mi
2:38 am23 °FLight snow. Low clouds.12 mph93%29.99 "Hg9 mi
1:58 am24 °FLight snow. Ice fog.13 mph99%30.12 "Hg4 mi
1:36 am25 °FLight snow. Mostly cloudy.12 mph93%29.99 "Hg9 mi
1:03 am25 °FLight snow. Overcast.7 mph93%29.99 "Hg10 mi
12:58 am24 °FLight snow. Overcast.8 mph95%30.11 "Hg10 mi
12:38 am25 °FLight snow. Overcast.7 mph93%29.99 "Hg8 mi
12:28 am25 °FLight snow. Mostly cloudy.8 mph93%29.99 "Hg8 mi
11:58 pm
Thu, Feb 23
24 °FLight snow. Overcast.8 mph94%30.11 "Hg10 mi
11:38 pm25 °FLight snow. Overcast.9 mph93%29.99 "Hg10 mi
10:58 pm25 °FLight snow. Mostly cloudy.10 mph91%30.11 "Hg10 mi
10:31 pm25 °FLight snow. Mostly cloudy.12 mph93%29.98 "Hg10 mi
10:21 pm25 °FLight snow. Mostly cloudy.9 mph93%29.98 "Hg10 mi
10:06 pm25 °FLight snow. Overcast.7 mph93%29.98 "Hg10 mi
9:58 pm25 °FOvercast.7 mph91%30.12 "Hg10 mi
9:30 pm25 °FLight snow. Mostly cloudy.7 mph93%29.98 "Hg10 mi
9:15 pm25 °FLight snow. Low clouds.10 mph93%29.98 "Hg10 mi
8:58 pm26 °FMostly cloudy.8 mph92%30.10 "Hg10 mi
8:28 pm27 °FOvercast.9 mph93%29.97 "Hg10 mi
8:21 pm27 °FOvercast.9 mph86%29.96 "Hg10 mi
8:08 pm27 °FLight snow. Overcast.10 mph86%29.96 "Hg8 mi
7:29 pm27 °FLight snow. Overcast.10 mph93%29.95 "Hg8 mi
7:19 pm27 °FLight snow. Overcast.10 mph93%29.95 "Hg8 mi
6:58 pm27 °FLight snow. Overcast.12 mph93%30.07 "Hg8 mi
6:43 pm27 °FLight snow. Mostly cloudy.12 mph93%29.95 "Hg8 mi
6:32 pm27 °FLight snow. Low clouds.12 mph93%29.94 "Hg8 mi
6:04 pm27 °FLight snow. Ice fog.12 mph100%29.93 "Hg6 mi
5:58 pm27 °FLight snow. Ice fog.13 mph94%30.05 "Hg5 mi
4:58 pm27 °FLight snow. Ice fog.12 mph100%30.02 "Hg4 mi
4:30 pm27 °FLight snow. Ice fog.12 mph100%29.90 "Hg5 mi
4:04 pm27 °FLight snow. Ice fog.12 mph100%29.89 "Hg5 mi
3:58 pm28 °FLight snow. Ice fog.12 mph97%30.00 "Hg5 mi
3:29 pm27 °FLight snow. Ice fog.12 mph100%29.88 "Hg4 mi
3:14 pm27 °FLight snow. Ice fog.13 mph100%29.88 "Hg4 mi
2:58 pm27 °FLight snow. Ice fog.10 mph98%29.99 "Hg4 mi
2:40 pm27 °FLight snow. Ice fog.12 mph100%29.87 "Hg3 mi
2:08 pm27 °FLight snow. Ice fog.12 mph100%29.87 "Hg2 mi
2:03 pm27 °FLight snow. Ice fog.12 mph100%29.87 "Hg2 mi
1:41 pm27 °FLight snow. Ice fog.10 mph100%29.87 "Hg2 mi
1:36 pm27 °FLight snow. Ice fog.10 mph100%29.87 "Hg3 mi
1:03 pm27 °FLight snow. Ice fog.8 mph93%29.87 "Hg4 mi
12:18 pm27 °FLight snow. Ice fog.8 mph93%29.88 "Hg4 mi
12:03 pm27 °FLight snow. Ice fog.8 mph93%29.88 "Hg3 mi
Weather by CustomWeather, © 2017

See weather overviewHow to use our weather pages